SCP
0 0 0 0 0 0 0 0 0 0 0 0 0 0 0 0 0 0 0 0 0 0 0 0 0 0 0 0 0 0 0 0 0 0 0 0 0 0 0 0 0 0 0 0
0 0 0 0 0 0 0 0 0 0 0 0 0 0 0 0 0 0 0 0 0 0 0 0 0 0 0 0 0 0 0 0 0 0 0 0 0 0 0 0 0 0 0 0
0 0 0 0 0 0 0 0 0 0 0 0 0 0 0 0 0 0 0 0 0 0 0 0 0 0 0 0 0 0 0 0 0 0 0 0 0 0 0 0 0 0 0 0
0 0 0 0 0 0 0 0 0 0 0 0 0 0 0 0 0 0 0 0 0 0 0 0 0 0 0 0 0 0 0 0 0 0 0 0 0 0 0 0 0 0 0 0
0 0 0 0 0 0 0 0 0 0 0 0 0 0 0 0 0 0 0 0 0 0 0 0 0 0 0 0 0 0 0 0 0 0 0 0 0 0 0 0 0 0 0 0
0 0 0 0 0 0 0 0 0 0 0 0 0 0 0 0 0 0 0 0 0 0 0 0 0 0 0 0 0 0 0 0 0 0 0 0 0 0 0 0 0 0 0 0
0 0 0 0 0 0 0 0 0 0 0 0 0 0 0 0 0 0 0 0 0 0 0 0 0 0 0 0 0 0 0 0 0 0 0 0 0 0 0 0 0 0 0 0
0 0 0 0 0 0 0 0 0 0 0 0 0 0 0 0 0 0 0 0 0 0 0 0 0 0 0 0 0 0 0 0 0 0 0 0 0 0 0 0 0 0 0 0
0 0 0 0 0 0 0 0 0 0 0 0 0 0 0 0 0 0 0 0 0 0 0 0 0 0 0 0 0 0 0 0 0 0 0 0 0 0 0 0 0 0 0 0
0 0 0 0 0 0 0 0 0 0 0 0 0 0 0 0 0 0 0 0 0 0 0 0 0 0 0 0 0 0 0 0 0 0 0 0 0 0 0 0 0 0 0 0
0 0 0 0 0 0 0 0 0 0 0 0 0 0 0 0 0 0 0 0 0 0 0 0 0 0 0 0 0 0 0 0 0 0 0 0 0 0 0 0 0 0 0 0
0 0 0 0 0 0 0 0 0 0 0 0 0 0 0 0 0 0 0 0 0 0 0 0 0 0 0 0 0 0 0 0 0 0 0 0 0 0 0 0 0 0 0 0
0 0 0 0 0 0 0 0 0 0 0 0 0 0 0 0 0 0 0 0 0 0 0 0 0 0 0 0 0 0 0 0 0 0 0 0 0 0 0 0 0 0 0 0
0 0 0 0 0 0 0 0 0 0 0 0 0 0 0 0 0 0 0 0 0 0 0 0 0 0 0 0 0 0 0 0 0 0 0 0 0 0 0 0 0 0 0 0
0 0 0 0 0 0 0 0 0 0 0 0 0 0 0 0 0 0 0 0 0 0 0 0 0 0 0 0 0 0 0 0 0 0 0 0 0 0 0 0 0 0 0 0
0 0 0 0 0 0 0 0 0 0 0 0 0 0 0 0 0 0 0 0 0 0 0 0 0 0 0 0 0 0 0 0 0 0 0 0 0 0 0 0 0 0 0 0
0 0 0 0 0 0 0 0 0 0 0 0 0 0 0 0 0 0 0 0 0 0 0 0 0 0 0 0 0 0 0 0 0 0 0 0 0 0 0 0 0 0 0 0
0 0 0 0 0 0 0 0 0 0 0 0 0 0 0 0 0 0 0 0 0 0 0 0 0 0 0 0 0 0 0 0 0 0 0 0 0 0 0 0 0 0 0 0
0 0 0 0 0 0 0 0 0 0 0 0 0 0 0 0 0 0 0 0 0 0 0 0 0 0 0 0 0 0 0 0 0 0 0 0 0 0 0 0 0 0 0 0
0 0 0 0 0 0 0 0 0 0 0 0 0 0 0 0 0 0 0 0 0 0 0 0 0 0 0 0 0 0 0 0 0 0 0 0 0 0 0 0 0 0 0 0
0 0 0 0 0 0 0 0 0 0 0 0 0 0 0 0 0 0 0 0 0 0 0 0 0 0 0 0 0 0 0 0 0 0 0 0 0 0 0 0 0 0 0 0
0 0 0 0 0 0 0 0 0 0 0 0 0 0 0 0 0 0 0 0 0 0 0 0 0 0 0 0 0 0 0 0 0 0 0 0 0 0 0 0 0 0 0 0
0 0 0 0 0 0 0 0 0 0 0 0 0 0 0 0 0 0 0 0 0 0 0 0 0 0 0 0 0 0 0 0 0 0 0 0 0 0 0 0 0 0 0 0
0 0 0 0 0 0 0 0 0 0 0 0 0 0 0 0 0 0 0 0 0 0 0 0 0 0 0 0 0 0 0 0 0 0 0 0 0 0 0 0 0 0 0 0
0 0 0 0 0 0 0 0 0 0 0 0 0 0 0 0 0 0 0 0 0 0 0 0 0 0 0 0 0 0 0 0 0 0 0 0 0 0 0 0 0 0 0 0
0 0 0 0 0 0 0 0 0 0 0 0 0 0 0 0 0 0 0 0 0 0 0 0 0 0 0 0 0 0 0 0 0 0 0 0 0 0 0 0 0 0 0 0
Wind_Speed
4 6 5 4 4 2 2 4 3 1 1 3 3 2 1 2 3 4 5 6 6 6 6 6 6 6 6 6 6 6 7 6 5 3 3 2 2 2 2 2 2 1 1 2
6 5 3 2 3 5 5 5 3 1 2 3 2 2 1 1 3 3 4 5 6 5 6 6 6 6 6 6 7 7 7 6 6 4 3 2 2 2 1 2 2 2 2 2
6 2 3 5 6 6 5 5 3 2 2 4 4 3 2 2 3 3 4 4 4 4 5 6 6 6 6 6 6 6 7 7 6 5 3 3 3 3 3 3 2 3 3 3
5 3 5 6 6 6 4 2 4 4 6 3 5 4 2 3 3 3 3 3 4 5 5 4 5 5 6 6 6 6 7 7 6 6 5 5 4 3 3 3 3 3 4 4
4 4 6 6 3 5 2 1 3 5 6 6 5 6 2 3 3 3 2 3 4 4 5 4 5 5 5 4 4 5 6 6 6 6 6 6 5 3 2 3 4 4 3 4
3 2 3 3 1 3 3 4 4 5 6 7 4 6 2 2 1 0 0 1 2 2 3 3 3 3 3 3 3 4 5 6 6 7 7 7 6 5 4 4 3 3 3 3
6 5 3 3 4 5 6 6 5 5 5 3 2 4 2 2 1 1 1 1 0 1 1 2 2 3 3 3 4 4 5 5 6 7 7 7 6 6 5 4 4 4 3 3
7 7 5 4 5 4 6 8 5 4 4 1 4 5 2 3 1 1 1 1 0 1 1 1 1 1 2 3 3 4 5 5 6 6 6 6 6 4 4 4 4 4 3 3
5 4 4 3 2 5 6 6 4 6 5 5 4 3 3 3 1 1 1 1 1 1 1 1 1 1 1 2 3 3 4 5 5 6 6 5 5 4 4 4 4 3 3 3
5 5 4 3 5 1 4 3 4 6 5 6 5 5 3 3 2 2 2 1 1 1 1 1 1 1 1 1 2 3 3 4 4 5 4 3 4 4 4 3 3 3 3 3
6 7 5 6 6 6 6 6 5 5 6 6 5 1 2 1 1 1 1 1 1 1 1 1 1 0 0 1 2 2 3 3 3 4 4 4 3 3 4 3 3 3 3 4
4 6 6 6 2 3 6 7 8 7 7 6 7 1 4 1 0 1 1 0 1 1 1 1 1 1 1 1 1 2 2 2 2 3 4 4 4 4 4 4 3 3 3 3
4 7 7 7 7 6 6 6 7 8 7 8 8 3 4 2 1 1 1 1 1 1 1 1 1 1 0 1 1 1 1 2 2 2 3 4 4 4 4 4 3 3 3 3
5 7 9 7 3 5 7 8 9 10 9 9 11 8 4 4 3 3 2 2 1 1 2 2 1 1 1 1 1 1 2 2 2 2 3 4 4 4 4 4 3 3 3 4
5 8 8 8 5 6 9 10 11 13 12 12 10 9 7 5 4 4 3 3 2 2 2 2 2 2 1 1 1 2 2 2 2 2 3 3 3 4 4 4 4 3 3 4
5 7 7 8 6 7 10 11 12 12 12 12 11 10 5 4 4 4 4 4 4 3 3 3 3 3 3 2 2 2 2 2 2 2 3 3 3 3 3 3 4 4 4 4
5 7 7 8 5 7 11 11 12 11 10 10 11 8 4 5 5 5 4 4 5 4 4 4 4 3 3 2 2 2 2 2 3 2 3 3 3 3 3 3 3 4 4 4
7 8 6 6 6 11 3 1 4 8 9 8 7 5 5 5 4 4 4 4 4 4 4 4 3 3 2 2 2 2 2 3 3 3 2 3 3 3 3 3 3 3 4 4
8 7 6 6 9 9 5 3 4 7 8 6 6 5 4 2 3 5 4 4 4 3 3 3 3 2 2 2 2 3 3 2 3 3 3 3 3 3 3 3 3 3 3 3
6 7 7 7 8 8 2 2 2 5 7 3 4 4 3 5 6 3 2 2 2 2 2 2 2 2 2 2 2 3 2 2 2 3 3 4 3 4 4 4 3 3 3 3
7 7 10 10 9 7 1 3 5 7 2 2 3 4 5 5 4 1 1 2 2 2 2 2 2 2 1 1 2 3 2 2 2 2 3 3 3 3 4 3 3 2 3 3
7 7 8 7 9 6 4 5 5 3 3 1 2 3 4 3 1 1 2 2 2 2 2 2 2 2 1 1 2 2 2 2 1 1 2 2 2 2 2 3 2 2 3 3
7 6 4 6 4 2 3 3 2 3 4 3 3 3 3 3 3 2 2 2 3 3 3 2 2 2 1 1 1 2 2 1 1 1 1 1 1 2 2 3 3 2 2 2
5 3 6 7 6 4 4 4 4 4 4 4 3 3 4 4 3 3 3 2 2 3 3 3 3 2 1 1 1 2 2 1 1 1 1 0 1 1 2 2 2 2 2 3
4 5 7 9 7 5 5 5 4 4 4 3 3 3 3 4 4 3 3 3 3 3 3 3 3 3 2 1 1 1 1 1 2 1 1 1 1 1 2 1 1 2 2 2
7 8 8 7 5 6 5 3 4 4 4 3 3 3 3 4 4 4 3 3 3 3 3 3 3 3 2 2 1 1 1 1 2 1 1 1 1 1 1 1 1 1 1 1
Wind_Direction
182 210 207 203 220 250 231 248 258 281 175 234 231 255 278 191 207 213 201 194 195 196 189 184 187 191 193 192 193 179 184 181 175 176 183 175 167 170 160 164 161 170 182 166
192 208 220 203 191 212 224 236 239 197 156 246 232 256 276 197 202 215 218 198 193 196 190 184 192 192 202 198 201 195 194 191 189 190 194 193 183 199 172 180 186 190 195 185
210 160 176 189 192 212 224 245 252 248 218 213 234 233 201 159 177 201 227 220 199 200 201 190 193 195 200 206 206 206 202 195 193 190 192 186 185 201 190 194 196 199 200 199
218 193 189 201 205 229 231 243 248 233 237 227 246 269 218 175 178 195 211 217 212 208 210 200 199 200 205 211 211 214 206 202 192 189 198 207 216 218 220 209 199 203 203 204
189 188 200 212 220 236 259 229 233 242 252 251 239 258 208 167 200 187 200 221 226 220 216 206 207 211 209 205 207 216 209 205 198 200 200 221 231 235 225 215 205 210 202 207
198 182 226 236 217 207 169 190 194 220 241 244 240 252 242 170 227 220 146 236 233 216 215 215 207 208 203 193 194 204 209 206 202 204 205 217 227 226 220 218 213 214 204 205
188 183 178 198 187 182 215 235 228 218 220 229 152 245 245 83 54 330 319 332 277 169 184 196 198 198 196 194 195 198 202 206 204 206 210 215 222 223 222 221 216 219 214 212
205 190 178 199 233 221 217 243 259 266 259 229 199 235 137 100 72 352 328 335 95 153 163 173 172 183 194 192 199 200 202 206 204 207 210 213 213 218 219 221 223 223 226 223
222 193 151 187 231 237 214 225 277 282 279 267 222 202 179 166 187 183 157 138 133 136 144 137 136 158 183 187 190 200 204 203 202 206 210 211 210 209 216 222 222 225 224 217
248 223 168 167 186 161 271 207 211 243 260 258 246 239 224 182 185 181 185 163 132 147 140 127 129 164 188 196 188 193 206 211 204 203 204 208 211 207 214 217 219 217 218 213
242 236 198 194 217 212 190 202 229 245 259 271 269 235 67 176 196 205 182 154 168 179 175 169 157 146 153 179 179 191 203 209 213 206 200 197 201 205 206 210 217 223 218 212
228 250 233 218 183 275 238 230 228 244 239 251 275 272 101 139 231 248 241 185 190 189 179 169 133 104 116 165 188 198 212 211 213 213 203 202 198 201 204 207 213 216 217 211
201 234 231 204 193 196 219 222 233 254 260 247 252 238 127 164 209 219 234 237 184 168 163 155 142 145 137 174 195 199 206 213 204 210 207 205 201 200 203 208 210 214 214 209
238 239 244 253 267 218 223 218 221 233 246 251 251 264 242 238 237 236 239 243 220 198 194 182 184 197 214 224 218 218 200 205 198 198 210 212 209 202 206 209 212 217 219 216
235 247 247 259 264 247 245 238 226 235 248 260 269 270 271 254 249 244 240 239 243 226 213 203 208 215 222 230 231 226 214 206 200 200 210 213 214 204 206 205 209 215 218 224
234 250 248 244 235 243 251 246 238 240 247 254 266 269 271 249 239 233 232 230 238 237 222 216 216 218 226 227 232 228 221 213 208 213 220 208 209 203 207 209 209 211 216 221
215 237 244 247 230 249 248 240 232 230 232 244 256 267 242 235 231 234 240 232 233 236 230 225 223 219 227 234 237 241 235 219 211 215 226 210 211 208 206 207 207 205 212 215
231 231 243 256 238 242 244 90 236 235 240 244 258 267 245 247 247 245 242 239 239 234 229 228 230 229 229 231 234 231 227 220 216 215 221 222 215 216 215 211 214 215 215 211
237 230 234 240 249 259 240 205 210 230 245 239 244 247 234 230 237 227 218 239 248 239 233 229 228 228 225 227 229 224 217 214 216 226 228 227 223 223 223 220 225 224 220 217
204 227 237 234 246 251 241 123 198 233 242 204 224 225 206 204 239 227 175 213 230 230 223 218 213 215 216 218 218 218 214 222 235 237 237 233 226 227 231 232 231 228 225 226
190 206 226 236 247 259 47 128 189 227 288 134 216 218 208 230 283 8 169 198 208 205 211 206 203 206 214 207 213 223 226 247 262 253 238 232 227 232 235 238 237 235 226 222
219 215 218 226 237 242 121 168 215 305 6 301 249 237 236 249 271 228 207 208 206 205 210 205 197 198 204 216 224 230 248 266 264 241 238 235 230 229 236 232 233 239 235 227
229 241 247 238 258 35 166 220 284 311 295 296 278 258 233 230 233 237 228 220 217 214 214 214 203 199 200 227 249 253 270 269 244 207 222 245 248 230 231 226 223 234 237 241
216 229 242 249 249 248 244 250 261 274 284 291 283 256 231 233 234 235 232 229 226 222 213 210 202 201 214 234 246 261 274 252 209 191 200 250 275 275 248 237 231 236 241 245
236 212 237 252 257 258 241 238 248 267 280 282 270 249 238 238 234 234 227 221 222 223 218 213 208 206 215 222 233 264 265 249 233 209 202 244 267 278 278 265 263 256 261 275
220 224 235 252 259 262 266 259 261 266 266 256 254 257 246 239 239 237 234 230 225 224 220 211 207 208 214 217 210 226 251 239 231 229 233 256 271 269 273 273 264 38 288 323